Simultaneous Nadir Overpasses (SNOs) Predictions

Prediction of SNOs between AURA and NPP Satellite Orbit:

Table of predicted SNOs for the next 14.0 days since TLE Epoch: 10/5/2013
Index Date (AURA) Time (AURA) Lat,Lon (AURA) SZA (AURA ) Date (NPP) Time (NPP) Lat,Lon (NPP) SZA (NPP ) Distance(km) Time Diff (sec)
1 10/07/2013 10:35:46 78.92, -85.80 98.19 10/07/2013 10:35:12 78.92, -85.83 98.22 0.68 34
2 10/07/2013 11:25:05 -79.26, 83.87 82.24 10/07/2013 11:25:48 -79.26, 83.90 82.28 0.58 43
3 10/10/2013 02:52:09 79.00, 30.57 99.05 10/10/2013 02:52:07 78.99, 30.45 99.08 2.85 2
4 10/10/2013 03:40:58 -80.40,-151.26 82.95 10/10/2013 03:42:12 -80.26,-150.82 83.08 17.18 74
5 10/12/2013 18:19:12 -78.84, -22.14 79.80 10/12/2013 18:18:24 -78.84, -22.13 79.76 0.38 48
6 10/12/2013 19:08:30 79.14, 147.28 99.83 10/12/2013 19:09:00 79.13, 147.22 99.82 1.33 30
7 10/15/2013 10:35:33 -78.95, 94.39 78.99 10/15/2013 10:35:18 -78.95, 94.36 78.97 0.83 15
8 10/15/2013 11:24:51 79.24, -96.16 100.64 10/15/2013 11:25:54 79.23, -96.27 100.62 2.52 63
9 10/18/2013 02:02:32 78.76, 41.59 102.18 10/18/2013 02:01:33 78.76, 41.59 102.23 0.13 59




NCC Satellite Simultaneous Nadir Overpasses (SNOs) Prediction Service
